Location: Sungai Bunut
(2.6333°N, 113.7333°E)
Time: 00:57:23
(UTC+00:00)

S-56A Canister/Altair - Pass Details

Date: 12 December 2023
Orbit: 640 x 2488 km, 38.9° (Epoch: 24 February)

Event Time Altitude Azimuth Distance (km) Brightness Sun altitude
Rises 18:44:23 0° 204° (SSW) 6,162 12.2 -49.3°
Reaches altitude 10° 18:50:53 10° 186° (S) 5,101 11.9 -47.9°
Maximum altitude 18:59:13 17° 151° (SSE) 4,275 11.6 -46.1°
Drops below altitude 10° 19:06:36 10° 115° (ESE) 4,476 12.0 -44.5°
Sets 19:11:34 0° 96° (E) 5,137 12.4 -43.5°
